Regional Weather Roundup
Issued by NWS

Home | Current Version | Previous Version | Text Only | Print | Product List | Glossary Off
Versions: 1 2 3 4 5 6 7 8 9 10 11 12 13 14 15 16 17 18 19 20 21 22 23 24 25 26 27 28 29 30 31 32 33 34 35 36 37 38 39 40 41 42 43 44 45 46 47 48 49 50

000
ASUS43 KLSX 280407
RWRMO

WEATHER SUMMARY FOR MISSOURI
NATIONAL WEATHER SERVICE SPRINGFIELD MO
1000 PM CST MON FEB 27 2017

NOTE: "FAIR" INDICATES FEW OR NO CLOUDS BELOW 12,000 FEET WITH NO
       SIGNIFICANT WEATHER AND/OR OBSTRUCTIONS TO VISIBILITY.
       CURRENT SKY AND/OR WEATHER CONDITIONS ARE NOT AVAILABLE FOR
       CHILLICOTHE AND FARMINGTON.

MOZ001>031-035>038-043-044-053-054-280500-
...NORTHERN AND WESTERN MISSOURI...

CITY           SKY/WX    TMP DP  RH WIND       PRES   REMARKS
KANSAS CTY INT CLOUDY    57  49  74 S14       29.76F
KANSAS C DTWN  CLOUDY    60  50  69 S13       29.76F
LEE`S SUMMIT   PTCLDY    59  49  69 S14       29.79F
ST JOSEPH      CLOUDY    47  36  65 E3        29.76F
CHILLICOTHE      N/A     55  38  52 SE5       29.81S
KIRKSVILLE     CLOUDY    51  36  56 SE12      29.83F

$$
MOZ066>068-077>081-088>096-101>105-280500-
...SOUTHWEST MISSOURI...

CITY           SKY/WX    TMP DP  RH WIND       PRES   REMARKS
SPRINGFIELD    CLOUDY    58  51  78 S17       29.91R
JOPLIN         CLOUDY    61  55  81 S14G24    29.86S
BRANSON        CLOUDY    55  52  88 SE9G16    29.96S

$$
MOZ032>034-039>042-045>050-055>058-069>072-280500-
...CENTRAL MISSOURI...

CITY           SKY/WX    TMP DP  RH WIND       PRES   REMARKS
COLUMBIA       CLOUDY    60  46  59 S15       29.88R
JEFFERSON CITY CLOUDY    60  47  61 S16       29.90R
ROLLA          CLOUDY    55  48  77 S17G24    29.94R
SEDALIA        CLOUDY    60  48  64 S15G26    29.85R
WHITEMAN AFB   MOCLDY    59  49  68 S14       29.81S
WARRENSBURG    MOCLDY    57  45  62 S10       29.81F
OSAGE BEACH    CLOUDY    58  49  72 S12G20    29.92R

$$
MOZ051-052-059>065-280500-
...EAST CENTRAL MISSOURI...

CITY           SKY/WX    TMP DP  RH WIND       PRES   REMARKS
ST LOUIS INTL  CLOUDY    59  48  67 S15       29.96F
SPIRIT OF STL  CLOUDY    59  49  69 S13G22    29.94F
ST CHARLES     CLOUDY    58  49  72 S17       29.95S

$$
MOZ072>076-082>087-097>100-106>115-280500-
...SOUTH CENTRAL AND SOUTHEAST MISSOURI...

CITY           SKY/WX    TMP DP  RH WIND       PRES   REMARKS
CAPE GIRARDEAU CLOUDY    56  46  69 S9        30.07R
FARMINGTON     CLOUDY    55  49  80 S14       30.01S
POPLAR BLUFF   CLOUDY    56  52  86 S8        30.04S
WEST PLAINS    CLOUDY    54  50  86 S9        30.01R

$$



USA.gov is the U.S. government's official web portal to all federal, state and local government web resources and services.